Weather Roundup
Issued by NWS

Home | Current Version | Previous Version | Graphics & Text | Print | Product List | Glossary Off
Versions: 1 2 3 4 5 6 7 8 9 10 11 12 13 14 15 16 17 18 19 20 21 22 23 24 25 26 27 28 29 30 31 32 33 34 35 36 37 38 39 40 41 42 43 44 45 46 47 48 49 50

000
NZUS93 KARX 200610
HRRWXR

CURRENT HOURLY OBSERVATIONS ACROSS
MUCH OF THE UPPER MISSISSIPPI VALLEY
NATIONAL WEATHER SERVICE LA CROSSE WI
100 AM CDT WED SEP 20 2017


...SOUTHEAST MINNESOTA...


CITY           SKY/WX    TMP DP  RH WIND       PRES   REMARKS
ROCHESTER      CLEAR     67  63  87 SE15      29.72S
ROCHESTER/MAYO FAIR      69  64  83 SE20G30   29.73S
WINONA         PTCLDY    70  61  73 SE8       29.77R
AUSTIN         PTCLDY    68  63  83 SE12G17   29.70S
ALBERT LEA     PTCLDY    72  66  83 SE17G23   29.68R
DODGE CENTER   CLOUDY    68  63  83 SE18G26   29.70F
PRESTON        PTCLDY    66  61  84 S16       29.77R
OWATONNA       CLOUDY    70  64  83 SE18G29   29.65S
FARIBAULT      CLOUDY    72  64  78 SE17G23   29.65S
$$

...ELSEWHERE IN MINNESOTA...


CITY           SKY/WX    TMP DP  RH WIND       PRES   REMARKS
MINNEAPOLIS    CLOUDY    72  65  78 SE15G24   29.65F
INTNL FALLS    CLOUDY    63  55  75 SE20G25   29.56F
DULUTH         CLOUDY    62  58  86 SE15      29.72S
RED WING       CLOUDY    72  61  68 SE14G23   29.69F
REDWOOD FALLS  CLOUDY    74  65  73 S22G33    29.47F
MANKATO        CLOUDY    74  65  73 SE22G36   29.58F
WORTHINGTON    TSTM      64  63  94 NW23G41   29.65R FOG
FAIRMONT       CLOUDY    73  66  78 S20G28    29.59S
$$

...SOUTHWEST WISCONSIN...


CITY           SKY/WX    TMP DP  RH WIND       PRES   REMARKS
LA CROSSE      CLEAR     72  64  76 SE15G23   29.76F
PRAIRIE DU CHI CLEAR     67  62  82 E8        29.79F
BOSCOBEL       CLEAR     69  64  84 VRB7      29.82F
LONE ROCK      CLEAR     65  62  90 E8        29.85F
PLATTEVILLE    CLEAR     64  64 100 SE10      29.85F
FORT MC COY    MOCLDY    68  63  82 SE10G17   29.82S
CAMP DOUGLAS   CLEAR     64  63  96 E7        29.84F
MAUSTON-NEW LI CLEAR     65  62  90 SE6       29.84F
VIROQUA        FAIR      65  64  97 SE14G21   29.82F
WIS DELLS      CLEAR     64  60  85 SE12      29.87F
$$

...ELSEWHERE IN WISCONSIN...


CITY           SKY/WX    TMP DP  RH WIND       PRES   REMARKS
MILWAUKEE      CLEAR     63  62  97 CALM      29.91F FOG
MADISON        CLEAR     64  61  90 MISG      29.89F
GREEN BAY      CLEAR     56  56 100 CALM      29.92S
EAU CLAIRE     PTCLDY    66  59  78 SE10      29.77R
BLACK RVR FLS  FAIR      66  61  82 SE6       29.81R
MEDFORD        MOCLDY    60  58  94 SE9G16    29.87R
WAUSAU         CLOUDY    61  59  93 SE12      29.88S
WIS RAPIDS     CLEAR     63  60  90 SE9       29.89R
MARSHFIELD     CLEAR     62  58  86 SE10      29.86S
RICE LAKE      CLOUDY    66  60  80 SE14G20   29.77S
$$

...NORTHEAST IOWA...


CITY           SKY/WX    TMP DP  RH WIND       PRES   REMARKS
WATERLOO       CLEAR     70  63  78 SE20G29   29.72F
DUBUQUE        CLEAR     66  63  90 SE13      29.83F
DECORAH        MOCLDY    68  64  88 SE14G20   29.76S
MASON CITY     PTCLDY    69  64  84 SE16G29   29.70R
CHARLES CITY   CLEAR     70  66  88 SE13G25   29.74R
OELWEIN        CLEAR     68  66  94 SE14G21   29.76F
$$

...ELSEWHERE IN IOWA...


CITY           SKY/WX    TMP DP  RH WIND       PRES   REMARKS
DES MOINES     PTCLDY    75  67  76 S16       29.69F
IOWA CITY      MOCLDY    71  65  81 SE8       29.81F
FORT DODGE     CLOUDY    76  50  40 S20G33    29.63S
MARSHALLTOWN   PTCLDY    71  66  84 SE16      29.71F
CEDAR RAPIDS   PTCLDY    71  65  81 SE15G24   29.78F
$$

...NORTHERN ILLINOIS...


CITY           SKY/WX    TMP DP  RH WIND       PRES   REMARKS
CHICAGO-OHARE  CLEAR     64  61  90 SE5       29.92S
CHICAGO-MIDWAY CLEAR     67  65  93 SE3       29.92S
MOLINE         CLEAR     69  63  81 SE8       29.83F
ROCKFORD       CLEAR     63  61  93 SE7       29.92S
PEORIA         CLEAR     71  64  78 SE8       29.88S
$$

NOTE: "FAIR" INDICATES FEW OR NO CLOUDS BELOW 12,000 FEET WITH NO
SIGNIFICANT WEATHER AND/OR OBSTRUCTIONS TO VISIBILITY. WIND
SPEEDS ARE IN MILES-PER-HOUR.




USA.gov is the U.S. government's official web portal to all federal, state and local government web resources and services.